Location: City of Moscow
(46.7306°N, 116.9989°W)
Time: 05:12:00
(UTC+00:00)

Cosmos 2219 Rocket - Pass Details

Date: 11 December 2025
Orbit: 827 x 845 km, 71.0° (Epoch: 13 January)

Event Time Altitude Azimuth Distance (km) Brightness Sun altitude
Exits shadow 12:38:08 16° 359° (N) 2,074 4.1 -27.2°
Maximum altitude 12:41:41 29° 49° (NE) 1,505 3.8 -26.6°
Drops below altitude 10° 12:46:31 10° 109° (ESE) 2,451 5.6 -25.8°
Sets 12:49:17 0° 120° (ESE) 3,378 6.4 -25.3°
